• In Netherlands
  • List of Countries
  • For 7 days
  • Water Temperature
  • Satellite Maps
  • Weather Map
  • Weather Widgets
  • user-avatar
    Login

    Hourly Weather Porto-Novo

    Today, 19 February, Sunday

    Time Temperature Precipitation Wind Pressure Humidity
    00:00 +25°C° 0 mm 2 mps 758 mmHg 81%
    01:00 +25°C° 0 mm 2 mps 758 mmHg 83%
    02:00 +24°C° 0 mm 1 mps 758 mmHg 84%
    03:00 +24°C° 0 mm 1 mps 758 mmHg 86%
    04:00 +24°C° 0 mm 1 mps 758 mmHg 85%
    05:00 +24°C° 0 mm 1 mps 758 mmHg 84%
    06:00 +24°C° 0 mm 2 mps 759 mmHg 83%
    07:00 +26°C° 0 mm 2 mps 759 mmHg 69%
    08:00 +29°C° 0 mm 2 mps 759 mmHg 56%
    09:00 +31°C° 0 mm 2 mps 760 mmHg 42%
    10:00 +34°C° 0 mm 2 mps 759 mmHg 35%
    11:00 +36°C° 0 mm 1 mps 759 mmHg 28%
    12:00 +39°C° 0 mm 1 mps 758 mmHg 21%
    13:00 +39°C° 0 mm 2 mps 758 mmHg 24%
    14:00 +38°C° 0 mm 2 mps 757 mmHg 27%
    15:00 +38°C° 0 mm 3 mps 756 mmHg 30%
    16:00 +36°C° 0 mm 3 mps 756 mmHg 39%
    17:00 +34°C° 0 mm 4 mps 756 mmHg 48%
    18:00 +30°C° 0 mm 4 mps 756 mmHg 57%
    19:00 +30°C° 0 mm 4 mps 757 mmHg 63%
    20:00 +29°C° 0 mm 3 mps 757 mmHg 70%
    21:00 +28°C° 0 mm 3 mps 758 mmHg 76%
    22:00 +28°C° 0 mm 3 mps 758 mmHg 78%
    23:00 +27°C° 0 mm 3 mps 758 mmHg 81%

    Tomorrow, 20 February, Monday

    Time Temperature Precipitation Wind Pressure Humidity
    00:00 +27°C° 0 mm 3 mps 758 mmHg 84%
    01:00 +27°C° 0 mm 3 mps 757 mmHg 86%
    02:00 +26°C° 0 mm 3 mps 757 mmHg 88%
    03:00 +26°C° 0 mm 3 mps 757 mmHg 90%
    04:00 +26°C° 0 mm 2 mps 757 mmHg 92%
    05:00 +25°C° 0 mm 2 mps 757 mmHg 94%
    06:00 +25°C° 0 mm 1 mps 757 mmHg 96%
    07:00 +27°C° 0 mm 1 mps 758 mmHg 83%
    08:00 +30°C° 0 mm 1 mps 758 mmHg 71%
    09:00 +32°C° 0 mm 1 mps 759 mmHg 58%
    10:00 +35°C° 0 mm 2 mps 759 mmHg 51%
    11:00 +37°C° 0 mm 2 mps 758 mmHg 43%
    12:00 +39°C° 0 mm 2 mps 758 mmHg 35%
    13:00 +38°C° 0 mm 3 mps 757 mmHg 38%
    14:00 +37°C° 0 mm 3 mps 756 mmHg 41%
    15:00 +37°C° 0 mm 4 mps 756 mmHg 44%
    16:00 +35°C° 0 mm 4 mps 756 mmHg 52%
    17:00 +33°C° 0 mm 4 mps 756 mmHg 59%
    18:00 +30°C° 0 mm 5 mps 756 mmHg 66%
    19:00 +30°C° 0 mm 4 mps 756 mmHg 70%
    20:00 +30°C° 0 mm 4 mps 757 mmHg 74%
    21:00 +29°C° 0 mm 4 mps 758 mmHg 78%
    22:00 +29°C° 0 mm 4 mps 758 mmHg 80%
    23:00 +29°C° 0 mm 4 mps 758 mmHg 82%

    Day after tomorrow, 21 February, Tuesday

    Time Temperature Precipitation Wind Pressure Humidity
    00:00 +28°C° 0 mm 4 mps 758 mmHg 84%
    01:00 +28°C° 0 mm 4 mps 757 mmHg 85%
    02:00 +28°C° 0 mm 4 mps 757 mmHg 87%
    03:00 +28°C° 0 mm 3 mps 756 mmHg 88%
    04:00 +27°C° 0 mm 3 mps 756 mmHg 90%
    05:00 +27°C° 0 mm 2 mps 757 mmHg 92%
    06:00 +26°C° 0 mm 2 mps 757 mmHg 94%
    07:00 +28°C° 0 mm 2 mps 757 mmHg 84%
    08:00 +30°C° 0 mm 2 mps 758 mmHg 75%
    09:00 +33°C° 0 mm 3 mps 758 mmHg 65%
    10:00 +35°C° 0 mm 3 mps 758 mmHg 57%
    11:00 +37°C° 0 mm 2 mps 757 mmHg 50%
    12:00 +39°C° 0 mm 2 mps 757 mmHg 42%
    13:00 +38°C° 0 mm 3 mps 756 mmHg 44%
    14:00 +38°C° 0 mm 3 mps 755 mmHg 45%
    15:00 +37°C° 0 mm 4 mps 754 mmHg 47%
    16:00 +35°C° 0 mm 4 mps 755 mmHg 55%
    17:00 +34°C° 0 mm 4 mps 755 mmHg 63%
    18:00 +32°C° 0 mm 5 mps 755 mmHg 71%
    19:00 +30°C° 0 mm 4 mps 756 mmHg 73%
    20:00 +30°C° 0 mm 4 mps 756 mmHg 76%
    21:00 +29°C° 0 mm 4 mps 757 mmHg 79%
    22:00 +29°C° 0 mm 4 mps 757 mmHg 80%
    23:00 +29°C° 0 mm 4 mps 757 mmHg 81%

    22 February, Wednesday

    Time Temperature Precipitation Wind Pressure Humidity
    00:00 +29°C° 0 mm 4 mps 757 mmHg 82%
    01:00 +28°C° 0 mm 4 mps 756 mmHg 84%
    02:00 +28°C° 0 mm 3 mps 756 mmHg 85%
    03:00 +28°C° 0 mm 3 mps 756 mmHg 86%
    04:00 +28°C° 0 mm 3 mps 756 mmHg 87%
    05:00 +27°C° 0 mm 2 mps 756 mmHg 88%
    06:00 +27°C° 0 mm 2 mps 756 mmHg 89%
    07:00 +29°C° 0 mm 3 mps 757 mmHg 80%
    08:00 +31°C° 0 mm 3 mps 757 mmHg 71%
    09:00 +34°C° 0 mm 3 mps 758 mmHg 62%
    10:00 +35°C° 0 mm 3 mps 757 mmHg 57%
    11:00 +36°C° 0 mm 3 mps 757 mmHg 53%
    12:00 +38°C° 0 mm 2 mps 756 mmHg 48%
    13:00 +37°C° 0 mm 3 mps 756 mmHg 48%
    14:00 +37°C° 0 mm 3 mps 755 mmHg 49%
    15:00 +37°C° 0 mm 4 mps 754 mmHg 49%
    16:00 +35°C° 0 mm 4 mps 754 mmHg 57%
    17:00 +33°C° 0 mm 4 mps 755 mmHg 64%
    18:00 +32°C° 0 mm 4 mps 755 mmHg 72%
    19:00 +30°C° 0 mm 4 mps 755 mmHg 75%
    20:00 +30°C° 0 mm 4 mps 756 mmHg 78%
    21:00 +29°C° 0 mm 4 mps 756 mmHg 81%
    22:00 +29°C° 0 mm 4 mps 756 mmHg 81%
    23:00 +29°C° 0 mm 4 mps 756 mmHg 82%

    23 February, Thursday

    Time Temperature Precipitation Wind Pressure Humidity
    00:00 +29°C° 0 mm 4 mps 756 mmHg 83%
    01:00 +29°C° 0 mm 4 mps 756 mmHg 83%
    02:00 +29°C° 0 mm 4 mps 755 mmHg 83%
    03:00 +29°C° 0 mm 4 mps 755 mmHg 83%
    04:00 +29°C° 0 mm 4 mps 756 mmHg 84%
    05:00 +28°C° 0 mm 3 mps 756 mmHg 84%
    06:00 +28°C° 0 mm 3 mps 756 mmHg 85%
    07:00 +29°C° 0.1 mm 3 mps 757 mmHg 80%
    08:00 +31°C° 0.1 mm 3 mps 757 mmHg 74%
    09:00 +32°C° 0.1 mm 2 mps 758 mmHg 68%
    10:00 +32°C° 0.5 mm 2 mps 758 mmHg 66%
    11:00 +34°C° 0.5 mm 2 mps 757 mmHg 64%
    12:00 +34°C° 0.5 mm 2 mps 757 mmHg 62%
    13:00 +35°C° 0.1 mm 3 mps 756 mmHg 59%
    14:00 +36°C° 0.1 mm 4 mps 755 mmHg 56%
    15:00 +36°C° 0.1 mm 4 mps 754 mmHg 53%
    16:00 +35°C° 0 mm 4 mps 754 mmHg 60%
    17:00 +33°C° 0 mm 4 mps 755 mmHg 66%
    18:00 +32°C° 0 mm 4 mps 755 mmHg 73%
    19:00 +30°C° 0 mm 5 mps 756 mmHg 76%
    20:00 +30°C° 0 mm 5 mps 756 mmHg 79%
    21:00 +29°C° 0 mm 5 mps 757 mmHg 82%
    22:00 +29°C° 0 mm 5 mps 757 mmHg 82%
    23:00 +29°C° 0 mm 5 mps 756 mmHg 82%

    24 February, Friday

    Time Temperature Precipitation Wind Pressure Humidity
    00:00 +29°C° 0 mm 5 mps 756 mmHg 82%
    01:00 +29°C° 0 mm 4 mps 756 mmHg 83%
    02:00 +28°C° 0 mm 4 mps 756 mmHg 83%
    03:00 +28°C° 0 mm 4 mps 755 mmHg 84%
    04:00 +28°C° 0 mm 4 mps 756 mmHg 83%
    05:00 +28°C° 0 mm 4 mps 756 mmHg 83%
    06:00 +28°C° 0 mm 3 mps 756 mmHg 82%
    07:00 +30°C° 0 mm 3 mps 757 mmHg 77%
    08:00 +32°C° 0 mm 4 mps 757 mmHg 72%
    09:00 +33°C° 0 mm 4 mps 757 mmHg 66%
    10:00 +33°C° 0.1 mm 3 mps 757 mmHg 64%
    11:00 +34°C° 0.1 mm 3 mps 757 mmHg 61%
    12:00 +35°C° 0.1 mm 3 mps 756 mmHg 58%
    13:00 +35°C° 0.3 mm 3 mps 756 mmHg 57%
    14:00 +35°C° 0.3 mm 4 mps 755 mmHg 56%
    15:00 +36°C° 0.3 mm 4 mps 754 mmHg 55%
    16:00 +34°C° 0 mm 4 mps 755 mmHg 60%
    17:00 +33°C° 0 mm 4 mps 755 mmHg 65%
    18:00 +32°C° 0 mm 4 mps 755 mmHg 71%
    19:00 +30°C° 0 mm 4 mps 756 mmHg 74%
    20:00 +30°C° 0 mm 4 mps 756 mmHg 77%
    21:00 +29°C° 0 mm 4 mps 757 mmHg 80%
    22:00 +29°C° 0 mm 4 mps 757 mmHg 81%
    23:00 +29°C° 0 mm 4 mps 756 mmHg 82%
    Show more